Regional Weather Roundup
Issued by NWS Newport/Morehead, NC

Current Version | Previous Version | Text Only | Print | Product List | Glossary Off
Versions: 1 2 3 4 5 6 7 8 9 10 11 12 13 14 15 16 17 18 19 20 21 22 23 24 25 26 27 28 29 30 31 32 33 34 35 36 37 38 39 40 41 42 43 44 45 46 47 48 49 50
715 ASUS42 KMHX 132225 RWRMHX WEATHER ROUNDUP FOR EASTERN NORTH CAROLINA NATIONAL WEATHER SERVICE NEWPORT/MOREHEAD CITY NC 500 PM EST SAT FEB 13 2016 NOTE: "FAIR" INDICATES FEW OR NO CLOUDS BELOW 12,000 FEET WITH NO SIGNIFICANT WEATHER AND/OR OBSTRUCTIONS TO VISIBILITY NCZ015>017-031-032-045>047-102-103-132300- NORTH COAST CITY SKY/WX TMP DP RH WIND PRES REMARKS EDENTON CLEAR 33 0 24 NW13G21 30.28R ELIZABETH CITY CLEAR 31 5 33 NW12 30.27R KITTY HAWK CLEAR 32 2 28 NW10G20 30.25R MANTEO CLEAR 31 5 33 N14G21 30.26R $$ NCZ045>047-081-094-103-104-132300- CENTRAL COAST CITY SKY/WX TMP DP RH WIND PRES REMARKS FRISCO CLEAR 34 7 32 NW13G23 30.25R SWANQUARTER N/A N/A N/A N/A NW9G21 30.27R $$ NCZ095-097-098-100-101-132300- SOUTHERN COAST CITY SKY/WX TMP DP RH WIND PRES REMARKS BEAUFORT CLEAR 34 10 37 NW22 30.28R CEDAR ISLAND N/A 34 N/A N/A NW23G32 30.33R JACKSONVILLE CLEAR 35 5 28 NW15 30.30R PINEY ISLAND CLEAR N/A N/A N/A NW18G25 30.28R WILMINGTON CLEAR 40 9 28 N15G21 30.29R $$ NCZ011>013-027>030-043-044-078>080-089-090>093-098-132300- COASTAL PLAIN CITY SKY/WX TMP DP RH WIND PRES REMARKS AHOSKIE CLEAR 30 -2 25 NW5 30.31R CLINTON CLEAR 36 7 29 NW7 30.32R ELIZABETHTOWN CLEAR 38 3 23 NW8 30.30R GOLDSBORO CLEAR 34 0 23 W13 30.29R GREENVILLE CLEAR 32 0 25 NW9 30.32R HAVELOCK CLEAR 35 6 29 NW15 30.29R KENANSVILLE CLEAR 34 6 31 CALM 30.32R KINSTON CLEAR 34 3 27 NW13G18 30.31R NEW BERN CLEAR 34 4 28 NW17 30.30R RICHLANDS CLEAR 34 3 27 CALM 30.31R ROCKY MOUNT CLEAR 32 0 25 NW14G24 30.31R WASHINGTON CLEAR 32 1 26 NW10G20 30.30R WHITEVILLE SUNNY 40 5 23 NW6 30.29R $$ AMZ130-135-150-152-154-156-158-170-250-252-270-ANZ085-086-088-633-658-670-132300- MARINE OBSERVATIONS STATION/POSITION TIME TEMP WIND PRES WAVE SWELL AIR SEA DIR/SP/G HT/PER HT/PER (UTC) (F) (DEG/KT/KT) (MB) (FT/S) (FT/S) CHESAPEAKE LIGHT 2200 29 310/ 26/ 30 1025.2 64 E VA BEACH 2150 31 48 320/ 23/ 33 1023.1 9/ 7 DUCK 2200 31 1024.0 2 E DUCK 2111 42 N/A 4/ 7 OREGON INLET 2200 31 39 1024.4 13E OREGON INLT 2200 46 N/A 6/ 7 2/11 HATTERAS CG 2200 33 43 1024.2 DIAMOND BUOY 2150 35 72 320/ 16/ 21 1024.4 5/ 8 3/ 8 CAPE LOOKOUT NOT AVBL BEAUFORT LAB 2200 34 42 1024.4 30 SE NEW RVR IN 2208 40 60 1024.7 30 SE NEW RVR IN 2125 60 N/A 5/ 5 27 SE WRIGHTSVLE 2208 41 59 360/ 17/ 25 1023.9 5 SE WRIGHTSVLE 2108 39 50 340/ 17/ 25 1024.9 225 S CAPE HAT 2150 52 68 330/ 21/ 27 N/A 10/ 9 5/ 9 41 SE CHARLESTON 2150 45 66 10/ 8/ 14 1025.0 4/ 6 3/ 6 $$

USA.gov is the U.S. government's official web portal to all federal, state and local government web resources and services.